This demonstration page uses our WeatherBlox Daily Observations layout. Learn more.

Left ArrowRight Arrow

Hourly Observations for April 23, 2018

Temp ( °F °C ) Dew Point ( °F °C ) Humidity (%) Winds ( mph kmh ) Pressure ( in mb ) Visibility ( mi km ) Precip ( " mm )
12:59 am 00:59 Mostly Cloudy 51 10.6 40 4.4 66 66 SE 6 9 30.40 1030 10 16 0.00 0.00
1:59 am 01:59 Mostly Cloudy 50 10 40 4.4 68 68 ESE 6 9 30.39 1029 10 16 0.00 0.00
2:59 am 02:59 Mostly Cloudy 50 10 40 4.4 68 68 ESE 7 11 30.38 1029 10 16 0.00 0.00
3:59 am 03:59 Mostly Cloudy 51 10.6 40 4.4 66 66 ESE 7 11 30.39 1029 10 16 0.00 0.00
4:59 am 04:59 Mostly Cloudy 52 11.1 42 5.6 69 69 SE 7 11 30.38 1029 10 16 0.00 0.00
5:59 am 05:59 Mostly Cloudy 51 10.6 42 5.6 71 71 ESE 6 9 30.38 1029 10 16 0.00 0.00
6:59 am 06:59 Mostly Cloudy 54 12.2 44 6.7 69 69 SE 7 11 30.40 1029 10 16 0.00 0.00
7:59 am 07:59 Mostly Cloudy 57 13.9 45 7.2 64 64 E 9 15 30.41 1030 10 16 0.00 0.00
8:59 am 08:59 Mostly Cloudy 61 16.1 44 6.7 54 54 ESE 13 20 30.41 1030 10 16 0.00 0.00
9:59 am 09:59 Mostly Cloudy 64 17.8 44 6.7 48 48 ESE 14 22 30.42 1030 10 16 0.00 0.00
10:59 am 10:59 Mostly Cloudy 67 19.4 44 6.7 44 44 ESE 15 24 30.42 1030 10 16 0.00 0.00
11:59 am 11:59 Mostly Cloudy 67 19.4 42 5.6 41 41 SE 14 22 30.43 1031 10 16 0.00 0.00
12:59 pm 12:59 Mostly Cloudy 67 19.4 40 4.4 37 37 ESE 17 28 30.42 1030 10 16 0.00 0.00
1:59 pm 13:59 Mostly Cloudy 66 18.9 37 2.8 34 34 E 14 22 30.41 1030 10 16 0.00 0.00
2:59 pm 14:59 Mostly Cloudy 65 18.3 35 1.7 33 33 SE 12 19 30.41 1030 10 16 0.00 0.00
3:59 pm 15:59 Cloudy 64 17.8 33 0.6 32 32 ESE 15 24 30.38 1029 10 16 0.00 0.00
4:59 pm 16:59 Cloudy 65 18.3 37 2.8 36 36 ESE 16 26 30.37 1029 10 16 0.00 0.00
5:59 pm 17:59 Mostly Cloudy 63 17.2 38 3.3 40 40 ESE 13 20 30.38 1029 10 16 0.00 0.00
6:59 pm 18:59 Mostly Cloudy 61 16.1 39 3.9 44 44 ESE 12 19 30.36 1028 10 16 0.00 0.00
7:59 pm 19:59 Mostly Cloudy 59 15 39 3.9 48 48 E 10 17 30.35 1028 10 16 0.00 0.00
8:59 pm 20:59 Mostly Cloudy 58 14.4 40 4.4 51 51 E 9 15 30.36 1028 10 16 0.00 0.00
9:59 pm 21:59 Mostly Cloudy 58 14.4 41 5 53 53 E 9 15 30.36 1028 10 16 0.00 0.00
10:59 pm 22:59 Mostly Cloudy 56 13.3 44 6.7 65 65 E 13 20 30.34 1027 10 16 0.00 0.00
11:59 pm 23:59 Mostly Cloudy 56 13.3 45 7.2 67 67 E 7 11 30.32 1027 10 16 0.00 0.00

Powered by AerisWeather